sat.trackr.live / text

‹ back to catalog

STARLINK-32478

NORAD 61726 · 2024-196V

PAYLOAD ACTIVE UNKNOWN

§ Identity

Operator
Country
US
Launch date
2024-10-30
Launch site
AFETR
Launch vehicle
Mass (kg)
RCS (m²)

Purposes: comms

External: N2YO · Heavens-Above · Gunter

§ Orbital elements

Epoch: 2026-09-21T17:10:00.007104Z

Period
93.85 min
Inclination
53.1599°
Eccentricity
0.0001309
Mean motion
15.34400781 rev/d
Perigee alt
461.8 km
Apogee alt
463.6 km
Semi-major
6,840.8 km
B*
5.2086e-5
RAAN
268.3635°
Arg perigee
87.3188°
Mean anomaly
272.7964°
Rev number
10,720

§ Raw data

STARLINK-324781 61726U 24196V   26264.71527786  .00001384  00000+0  52086-4 0  99972 61726  53.1599 268.3635 0001309  87.3188 272.7964 15.34400781107207

JSON: /api/v1/satellites/61726 · /tle

For live sub-satellite position, see the globe view (requires WebGL).

§ Visibility from observer

Set your observer location to see the next 7 days of passes ≥ 10°. The values pass through the URL so the page stays shareable.

No JS? Fill the form by hand. The geolocation button needs JavaScript.